VLG49TV LEBL-LEAL

Flight info

Callsign VLG49TV
Flight time 0h 51m
Altitude 29000
Route LOTOS DCT TORDU DCT DIKUT DCT SOPET DCT VLC
Aircraft A320/M-SDFGHILORVWXY/LB1

Departure

Time 2026-05-04 16:06
Airport Josep Tarradellas Barcelona-El Prat Airport (LEBL)

Arrival

Time 2026-05-04 16:58
Airport Alicante-Elche Miguel Hernández Airport (LEAL)
Time Latitude Longitude Altitude Speed Heading
2026-05-04 15:35 41.29369 2.08110 20 ft 0 kts 65°
2026-05-04 15:57 41.29372 2.08118 18 ft 3 kts 66°
2026-05-04 15:57 41.29381 2.08158 19 ft 5 kts 94°
2026-05-04 15:57 41.29344 2.08209 19 ft 9 kts 134°
2026-05-04 15:57 41.29347 2.08254 19 ft 4 kts 66°
2026-05-04 15:58 41.29364 2.08307 19 ft 9 kts 67°
2026-05-04 15:58 41.29350 2.08386 20 ft 10 kts 144°
2026-05-04 15:58 41.29287 2.08427 20 ft 10 kts 155°
2026-05-04 15:58 41.29213 2.08471 22 ft 14 kts 155°
2026-05-04 15:59 41.29120 2.08532 17 ft 16 kts 155°
2026-05-04 15:59 41.29022 2.08587 18 ft 14 kts 158°
2026-05-04 15:59 41.28944 2.08632 20 ft 12 kts 154°
2026-05-04 15:59 41.28878 2.08678 16 ft 9 kts 142°
2026-05-04 16:00 41.28864 2.08729 17 ft 4 kts 86°
2026-05-04 16:00 41.28869 2.08744 17 ft 0 kts 68°
2026-05-04 16:00 41.28880 2.08783 18 ft 14 kts 68°
2026-05-04 16:00 41.28922 2.08904 18 ft 12 kts 62°
2026-05-04 16:01 41.28951 2.08989 17 ft 9 kts 65°
2026-05-04 16:01 41.28996 2.09121 17 ft 19 kts 68°
2026-05-04 16:01 41.29045 2.09268 17 ft 16 kts 65°
2026-05-04 16:01 41.29091 2.09401 17 ft 15 kts 66°
2026-05-04 16:02 41.29135 2.09532 17 ft 15 kts 66°
2026-05-04 16:02 41.29181 2.09659 18 ft 15 kts 64°
2026-05-04 16:02 41.29270 2.09913 18 ft 13 kts 50°
2026-05-04 16:03 41.29310 2.09997 17 ft 8 kts 69°
2026-05-04 16:03 41.29322 2.10050 18 ft 4 kts 86°
2026-05-04 16:03 41.29317 2.10101 18 ft 6 kts 109°
2026-05-04 16:03 41.29305 2.10148 15 ft 4 kts 109°
2026-05-04 16:04 41.29304 2.10154 15 ft 0 kts 109°
2026-05-04 16:04 41.29302 2.10163 14 ft 4 kts 109°
2026-05-04 16:04 41.29285 2.10223 13 ft 8 kts 111°
2026-05-04 16:05 41.29262 2.10295 13 ft 9 kts 126°
2026-05-04 16:05 41.29235 2.10300 14 ft 3 kts 191°
2026-05-04 16:05 41.29124 2.10049 18 ft 28 kts 248°
2026-05-04 16:06 41.28949 2.09533 19 ft 93 kts 245°
2026-05-04 16:06 41.27763 2.06386 939 ft 157 kts 225°
2026-05-04 16:07 41.26380 2.05577 1492 ft 182 kts 181°
2026-05-04 16:07 41.22134 2.05624 3143 ft 214 kts 181°
2026-05-04 16:08 41.20642 2.05633 3897 ft 215 kts 181°
2026-05-04 16:08 41.16152 2.04815 5917 ft 233 kts 208°
2026-05-04 16:09 41.13270 2.02801 5995 ft 233 kts 208°
2026-05-04 16:09 41.10402 2.00802 5990 ft 232 kts 208°
2026-05-04 16:10 41.07730 1.98481 5991 ft 230 kts 229°
2026-05-04 16:11 41.05848 1.92043 7309 ft 264 kts 253°
2026-05-04 16:11 41.05363 1.89691 8222 ft 265 kts 251°
2026-05-04 16:12 41.03566 1.83593 10316 ft 279 kts 246°
2026-05-04 16:12 41.01244 1.75804 11895 ft 315 kts 247°
2026-05-04 16:13 40.99622 1.70354 13387 ft 322 kts 247°
2026-05-04 16:13 40.97962 1.64794 14724 ft 328 kts 247°
2026-05-04 16:14 40.96271 1.59153 16079 ft 332 kts 247°
2026-05-04 16:14 40.94644 1.53388 17412 ft 337 kts 250°
2026-05-04 16:15 40.92520 1.44425 19258 ft 342 kts 244°
2026-05-04 16:16 40.89435 1.39684 20349 ft 345 kts 223°
2026-05-04 16:16 40.83978 1.33415 22050 ft 349 kts 223°
2026-05-04 16:17 40.80296 1.29204 23111 ft 352 kts 223°
2026-05-04 16:18 40.74699 1.22808 24434 ft 358 kts 223°
2026-05-04 16:18 40.72814 1.20650 24843 ft 359 kts 223°
2026-05-04 16:19 40.67107 1.14113 26044 ft 365 kts 223°
2026-05-04 16:19 40.63249 1.09709 26829 ft 369 kts 223°
2026-05-04 16:20 40.57382 1.03039 27952 ft 374 kts 223°
2026-05-04 16:20 40.53585 0.98328 28668 ft 377 kts 228°
2026-05-04 16:21 40.48371 0.90880 28905 ft 355 kts 228°
2026-05-04 16:22 40.45040 0.86132 28904 ft 352 kts 228°
2026-05-04 16:23 40.35093 0.71983 28908 ft 353 kts 228°
2026-05-04 16:25 40.25084 0.57829 28880 ft 353 kts 228°
2026-05-04 16:26 40.13405 0.41394 28921 ft 352 kts 228°
2026-05-04 16:28 40.05057 0.29700 28922 ft 352 kts 228°
2026-05-04 16:29 39.93347 0.13378 28903 ft 352 kts 228°
2026-05-04 16:31 39.84979 0.01749 28903 ft 352 kts 228°
2026-05-04 16:32 39.74934 -0.12137 28892 ft 352 kts 228°
2026-05-04 16:33 39.68229 -0.21383 28900 ft 351 kts 228°
2026-05-04 16:34 39.63187 -0.28298 28906 ft 352 kts 228°
2026-05-04 16:35 39.53104 -0.42102 28874 ft 351 kts 228°
2026-05-04 16:36 39.47619 -0.48319 28731 ft 352 kts 211°
2026-05-04 16:37 39.42974 -0.50287 28184 ft 352 kts 200°
2026-05-04 16:37 39.40616 -0.51083 27917 ft 349 kts 201°
2026-05-04 16:37 39.35964 -0.52753 27384 ft 344 kts 201°
2026-05-04 16:38 39.31426 -0.54403 26538 ft 334 kts 202°
2026-05-04 16:39 39.24792 -0.56774 25220 ft 326 kts 201°
2026-05-04 16:39 39.20447 -0.58310 24319 ft 322 kts 201°
2026-05-04 16:40 39.16142 -0.59837 23373 ft 320 kts 201°
2026-05-04 16:40 39.11863 -0.61362 22368 ft 317 kts 201°
2026-05-04 16:41 39.07636 -0.62862 21474 ft 313 kts 201°
2026-05-04 16:41 39.01376 -0.65062 20143 ft 309 kts 201°
2026-05-04 16:42 38.95186 -0.67245 18834 ft 306 kts 201°
2026-05-04 16:43 38.91113 -0.68683 17943 ft 306 kts 201°
2026-05-04 16:43 38.87028 -0.70113 17074 ft 302 kts 201°
2026-05-04 16:43 38.85004 -0.70823 16673 ft 302 kts 201°
2026-05-04 16:44 38.76904 -0.73659 15012 ft 302 kts 200°
2026-05-04 16:45 38.72849 -0.75076 14177 ft 302 kts 200°
2026-05-04 16:46 38.66745 -0.77216 12874 ft 303 kts 200°
2026-05-04 16:46 38.62695 -0.78627 12037 ft 301 kts 200°
2026-05-04 16:47 38.58716 -0.80011 11547 ft 284 kts 200°
2026-05-04 16:47 38.55166 -0.81254 11169 ft 248 kts 206°
2026-05-04 16:48 38.51544 -0.85427 10439 ft 233 kts 231°
2026-05-04 16:48 38.50428 -0.86930 10161 ft 234 kts 228°
2026-05-04 16:49 38.48003 -0.89739 9483 ft 237 kts 223°
2026-05-04 16:49 38.45346 -0.92254 8791 ft 238 kts 218°
2026-05-04 16:50 38.42502 -0.94425 8104 ft 239 kts 213°
2026-05-04 16:50 38.39471 -0.96222 7423 ft 242 kts 206°
2026-05-04 16:51 38.36309 -0.97673 6797 ft 244 kts 194°
2026-05-04 16:51 38.34631 -0.97361 6498 ft 258 kts 156°
2026-05-04 16:51 38.32977 -0.93485 5617 ft 264 kts 84°
2026-05-04 16:52 38.32875 -0.89036 4964 ft 243 kts 104°
2026-05-04 16:52 38.32526 -0.86967 4653 ft 235 kts 102°
2026-05-04 16:53 38.31965 -0.82963 4059 ft 225 kts 102°
2026-05-04 16:53 38.31193 -0.77322 3196 ft 207 kts 103°
2026-05-04 16:54 38.30950 -0.75551 2928 ft 201 kts 102°
2026-05-04 16:55 38.30053 -0.69038 1954 ft 159 kts 102°
2026-05-04 16:55 38.29691 -0.66426 1555 ft 144 kts 102°
2026-05-04 16:56 38.29343 -0.63939 1162 ft 142 kts 102°
2026-05-04 16:56 38.28834 -0.60281 594 ft 138 kts 104°
2026-05-04 16:57 38.28667 -0.59079 426 ft 138 kts 104°
2026-05-04 16:57 38.28342 -0.56710 125 ft 126 kts 104°
2026-05-04 16:58 38.28129 -0.55010 80 ft 23 kts 82°
2026-05-04 16:58 38.28142 -0.54890 70 ft 7 kts 78°
2026-05-04 16:59 38.28214 -0.54708 65 ft 9 kts 17°
2026-05-04 17:00 38.28309 -0.55178 85 ft 10 kts 292°
2026-05-04 17:00 38.28441 -0.55202 88 ft 6 kts 283°
2026-05-04 17:01 38.28460 -0.55285 92 ft 5 kts 320°
2026-05-04 17:01 38.28510 -0.55281 89 ft 3 kts
2026-05-04 17:02 38.28529 -0.55277 88 ft 0 kts